Volver al catálogo

SL-12 R/B(2)

ActivoMEO
NORAD 15264·ROCKET BODY·🇷🇺 Russia

Lanzado Sep 4, 1984 desde Baikonur Cosmodrome

Loading…

Próximos Pases (próximas 24 horas)

TLE

ActualizadoSource: Space-Track

Época: Sep 12, 2026, 09:21 UTC

1 15264U 84095F   26255.38980193 -.00000004  00000-0  00000-0 0  9990
2 15264  64.8803  69.1155 0013711  57.8931 120.4594  2.13046378321478

Sigue SL-12 R/B(2) en tiempo real con AllMySat

Download on the App Store